Location: Remedello Sotto
(45.2500°N, 10.3667°E)
Time: 10:17:31
(UTC+00:00)

Atlas Centaur 2 - Pass Details

Date: 03 February 2023
Orbit: 458 x 1296 km, 30.4° (Epoch: 20 March)

Event Time Altitude Azimuth Distance (km) Brightness Sun altitude
Rises 19:57:47 0° 247° (WSW) 4,216 6.4 -36.9°
Reaches altitude 10° 20:01:09 10° 236° (WSW) 3,288 5.6 -37.5°
Enters shadow 20:05:42 25° 207° (SSW) 2,367 4.5 -38.3°
